Regional Weather Roundup
Issued by NWS

Home | Current Version | Previous Version | Graphics & Text | Print | Product List | Glossary On
Versions: 1 2 3 4 5 6 7 8 9 10 11 12 13 14 15 16 17 18 19 20 21 22 23 24 25 26 27 28 29 30 31 32 33 34 35 36 37 38 39 40 41 42 43 44 45 46 47 48 49 50
000
ASUS43 KMPX 240801
RWRMN
WEATHER ROUNDUP FOR MINNESOTA
NATIONAL WEATHER SERVICE TWIN CITIES/CHANHASSEN MN
200 AM CST FRI FEB 24 2017


NOTE: "FAIR" INDICATES FEW OR NO CLOUDS BELOW 12,000 FEET WITH NO
SIGNIFICANT WEATHER AND/OR OBSTRUCTIONS TO VISIBILITY. N/A MEANS
CURRENT SKY AND/OR WEATHER CONDITIONS ARE NOT AVAILABLE.

MNZ060>063-068>070-240900-
   Twin Cities Metro

CITY           SKY/WX    TMP DP  RH WIND       PRES   REMARKS
TWIN CITIES    CLOUDY    28  19  69 NE15G26   29.84F WCI  16
ST PAUL        CLOUDY    29  21  72 N14       29.86F WCI  18
CRYSTAL        CLOUDY    28  15  58 N15G24    29.85F WCI  16
BLAINE         CLOUDY    28  19  69 N16G23    29.86F WCI  17
LAKEVILLE      CLOUDY    28  23  80 NE17G25   29.80F WCI  16
EDEN PRAIRIE   CLOUDY    28  18  66 N13G26    29.81F WCI  17
SOUTH ST PAUL  CLOUDY    30  21  68 NE12G21   29.83F WCI  20
LAKE ELMO      MOCLDY    30  23  74 NE13G18   29.85F WCI  20
$$
MNZ001>005-007-008-013>017-022>024-027-028-240900-
   Northwest Minnesota

CITY           SKY/WX    TMP DP  RH WIND       PRES   REMARKS
BEMIDJI        CLOUDY    13   7  76 N7        30.05S WCI   3
HALLOCK        CLEAR     12  10  92 CALM      30.17S
ROSEAU         CLOUDY     9   3  78 CALM      30.14F
WARROAD        CLEAR      7   1  78 NW5       30.13F WCI  -2
THIEF RVR FALL CLEAR     13   7  77 N8        30.13F WCI   2
CROOKSTON      CLEAR     18  10  73 NE9       30.15F WCI   6
FOSSTON        CLOUDY    12   7  79 N15       30.09S WCI  -4
DETROIT LAKES  CLOUDY    18  10  73 N13G21    30.04F WCI   4
MOORHEAD       PTCLDY    19  12  73 N20       30.10S WCI   4
PARK RAPIDS    CLOUDY    16   6  65 N13       30.01S WCI   2
MAHNOMEN       FAIR      16   9  72 N17       30.06F WCI   0
$$
MNZ006-009>011-018-025>026-240900-
   North Central Minnesota

CITY           SKY/WX    TMP DP  RH WIND       PRES   REMARKS
BAUDETTE       CLEAR      8   3  80 NW8       30.09F WCI  -4
FLAG ISLAND    PTCLDY     9   3  78 NW7       30.12S WCI  -3
INTL FALLS     CLOUDY    13   3  64 N7        30.06F WCI   3
WASKISH        CLOUDY    10   7  85 N7        30.08F WCI   0
BIG FORK       CLOUDY    14   7  73 N5        30.03S WCI   6
LONGVILLE      CLOUDY    16   9  73 N5        30.02S WCI   9
GRAND RAPIDS   CLOUDY    15   9  76 N12       30.02S WCI   2
CRANE LAKE     CLOUDY    14   7  73 N6        30.06F WCI   5
ORR            CLOUDY    14   7  73 CALM      30.00F
COOK           CLOUDY    16   9  73 CALM      30.02S
WALKER         FAIR      14   7  73 N9        30.02F WCI   2
$$
MNZ012-019>021-037-240900-
   Northeast Minnesota

CITY           SKY/WX    TMP DP  RH WIND       PRES   REMARKS
DULUTH         CLOUDY    19  14  81 N8        29.95R WCI   9
ELY            CLOUDY    16   9  73 N5        29.98F WCI   9
HIBBING        CLOUDY    15  10  80 N9        29.98F WCI   3
EVELETH        CLOUDY    18   6  59 N6        29.99R WCI  10
DULUTH HARBOR  CLOUDY    27  18  69 N18       30.00R WCI  13
TWO HARBORS    CLOUDY    23  16  74 NE5       29.95R WCI  17
SILVER BAY     CLOUDY    21  12  68 N5        29.97R WCI  15
GRAND MARAIS     N/A     21   9  59 NE8       30.02F WCI  11
G MARAIS ARPRT CLOUDY    12   1  62 N16G23    29.93F WCI  -4
$$
MNZ029>031-032-039>041-046>048-054>057-064-240900-
   West Central Minnesota

CITY           SKY/WX    TMP DP  RH WIND       PRES   REMARKS
FERGUS FALLS   MOCLDY    19  10  68 NE12G18   30.07R WCI   7
WHEATON        MOCLDY    21  14  73 N17G25    30.03F WCI   7
MORRIS         CLOUDY    25  18  74 N21G26    29.96F WCI  10
ALEXANDRIA     CLOUDY    21  13  71 NE16G25   29.95F WCI   7
ELBOW LAKE     FAIR      20  13  73 N15G22    30.00S WCI   6
WADENA         CLOUDY    18  10  73 N13G20    30.00R WCI   4
GLENWOOD       PTCLDY    21  16  79 N22G28    29.93F WCI   5
APPLETON       MOCLDY    27  18  69 N24G30    29.94S WCI  12
BENSON         MOCLDY    27  16  63 NE21G26   29.95S WCI  13
ORTONVILLE     CLOUDY    23  18  80 N26G32    29.97S WCI   6
MADISON        CLOUDY    27  21  80 N22G30    29.95R WCI  12
WILLMAR        FAIR      27  19  74 NE25G31   29.91S WCI  11
$$
MNZ033>034-036-042>043-049>051-058-059-240900-
   Central Minnesota

CITY           SKY/WX    TMP DP  RH WIND       PRES   REMARKS
ST CLOUD       CLOUDY    24  15  68 N15G28    29.93F WCI  11
SAUK CENTRE    FAIR      22  13  69 N20G30    29.95F WCI   7
PAYNESVILLE    CLOUDY    24  16  71 NE17G26   29.92S WCI  11
AITKIN         CLOUDY    21  10  63 N8        29.98R WCI  12
PINE RIVER     CLOUDY    18  10  73 N15       30.04R WCI   3
BRAINERD       CLOUDY    19  10  68 N12       29.99R WCI   7
STAPLES        CLOUDY    18  10  73 N10G16    30.00S WCI   6
LONG PRAIRIE   MOCLDY    21  14  73 NW16      29.95F WCI   7
LITTLE FALLS   MOCLDY    23  12  63 N8        29.97F WCI  14
LITCHFIELD     CLOUDY    27  18  69 N22       29.89F WCI  12
BUFFALO        CLOUDY    26  17  68 N16       29.89F WCI  14
MAPLE LAKE     CLOUDY    27  19  73 N13G21    29.90F WCI  16
HUTCHINSON     CLOUDY    28  20  73 N21G30    29.86F WCI  14
$$
MNZ037-044-045-052-053-240900-
   East Central Minnesota

CITY           SKY/WX    TMP DP  RH WIND       PRES   REMARKS
PRINCETON      CLOUDY    27  18  69 N15G22    29.92F WCI  15
MORA           CLOUDY    23  16  74 N6        29.95F WCI  16
CAMBRIDGE      CLOUDY    27  16  63 N8G22     29.90F WCI  18
RUSH CITY      CLOUDY    25  16  68 N10G22    29.92F WCI  15
MOOSE LAKE     CLOUDY    21  14  73 N7        29.96S WCI  13
HINCKLEY       FAIR      25  18  74 N14G22    29.94F WCI  13
CLOQUET        CLOUDY    19  12  73 N7        29.96R WCI  10
MCGREGOR       CLOUDY    19  14  79 N10       29.99R WCI   8
$$
MNZ071>073-080-081-089-090-097-098-240900-
   Southwest Minnesota

CITY           SKY/WX    TMP DP  RH WIND       PRES   REMARKS
MONTEVIDEO     CLOUDY    27  19  74 NE18G25   29.93F WCI  13
GRANITE FALLS  CLOUDY    29  21  71 N21G26    29.91F WCI  16
CANBY          CLOUDY    27  21  80 N21G26    29.94R WCI  13
MARSHALL       CLOUDY    27  20  75 NE23G29   29.88S WCI  12
REDWOOD FALLS  CLOUDY    28  18  66 N13G24    29.87S WCI  17
OLIVIA         CLOUDY    30  23  74 NE20G26   29.87F WCI  18
PIPESTONE      CLOUDY    27  19  74 NE24G31   29.81F WCI  12
WINDOM         CLOUDY    27  21  80 N20G26    29.81R WCI  13
WORTHINGTON    LGT SNOW  25  22  88 N26G36    29.77F FOG     WCI   9
JACKSON        LGT SNOW  27  25  93 N22       29.79R WCI  12
TRACY          CLOUDY    28  22  79 N24       29.86R WCI  14
SLAYTON        CLOUDY    25  21  86 N18G30    29.81F WCI  11
$$
MNZ065>067-074>077-082>085-091>093-240900-
   South Central Minnesota

CITY           SKY/WX    TMP DP  RH WIND       PRES   REMARKS
MANKATO        LGT SNOW  27  24  89 N18       29.81S FOG     WCI  14
NEW ULM        CLOUDY    28  19  69 NE18G28   29.82F WCI  16
ST JAMES       CLOUDY    27  23  86 N17       29.83R WCI  14
FAIRMONT       SNOW      27  25  92 N21       29.79R VSB 1/2 WCI  13
GLENCOE        CLOUDY    29  22  75 N16G23    29.83F WCI  17
FARIBAULT      LGT SNOW  27  27 100 N15G22    29.78F WCI  15
OWATONNA         N/A     28  25  86 N16G23    29.77R WCI  17
WASECA         CLOUDY    28  27  93 N21G26    29.78R WCI  15
ALBERT LEA     SNOW      28  27  93 N23G35    29.70R VSB 1/2 WCI  14
$$
MNZ078>079-086>088-094>096-240900-
   Southeast Minnesota

CITY           SKY/WX    TMP DP  RH WIND       PRES   REMARKS
ROCHESTER      FOG       29  28  96 N24G31    29.69R VSB 3/4 WCI  15
RED WING       LGT SNOW  28  27  93 NE9       29.78F VSB 1   WCI  20
STANTON        LGT SNOW  29  27  90 NE18      29.77F WCI  17
DODGE CENTER   LGT SNOW  27  27 100 N23       29.73R WCI  12
WINONA         LGT SNOW  34  32  93 NE10      29.73F WCI  26
AUSTIN           N/A     28  27  93 N16G24    29.68R WCI  17
PRESTON        LGT SNOW  30  29  94 NE20G29   29.66S VSB 1   WCI  18
$$
ABBREVIATIONS USED IN REMARKS
   TC - TEMPERATURES IN CELSIUS
  WCI - WIND CHILL INDEX
   HX - HEAT INDEX
  VSB - VISIBILITY
$$




USA.gov is the U.S. government's official web portal to all federal, state and local government web resources and services.